Lapse_Rate
6.6 6.8 6.9 6.8 6.8 6.9 7.0 7.0 7.0 6.9 6.8 6.6 6.5 6.4 6.3 6.3 6.3 6.2 6.2 6.1 6.1 6.2 6.2 6.3 6.2 6.3 6.4 6.4 6.4 6.4 6.4 6.3 6.3 6.3 6.2 5.6 4.9 4.4 4.1 4.1 4.2 4.1 3.9
6.8 7.0 6.9 6.8 6.8 6.8 7.0 7.0 7.0 6.9 6.7 6.5 6.4 6.3 6.2 6.2 6.2 6.2 6.1 6.1 6.0 6.0 6.1 6.3 6.3 6.4 6.4 6.4 6.5 6.4 6.2 6.2 6.2 6.1 6.0 5.8 5.3 4.5 4.1 3.9 4.0 4.0 3.7
7.0 7.1 7.1 7.0 6.8 7.0 7.0 7.0 6.9 6.9 6.7 6.5 6.3 6.2 6.2 6.2 6.2 6.2 6.1 6.0 6.0 6.0 6.0 6.2 6.3 6.4 6.5 6.5 6.6 6.5 6.3 6.3 6.1 6.1 5.9 5.8 5.3 4.5 3.8 3.4 3.7 3.8 3.7
7.2 7.2 7.2 7.3 7.1 6.9 7.0 7.1 6.8 6.7 6.5 6.3 6.2 6.1 6.1 6.1 6.1 6.1 6.0 6.0 5.9 5.9 6.0 6.0 6.2 6.3 6.4 6.5 6.5 6.5 6.5 6.4 6.4 6.3 6.1 5.8 5.0 4.2 3.8 3.5 3.6 3.7 3.6
7.5 7.4 7.4 7.2 7.2 7.2 7.2 7.1 7.0 6.8 6.5 6.3 6.1 6.0 6.0 6.0 6.1 6.1 6.0 6.0 5.9 6.0 6.0 6.1 6.3 6.4 6.5 6.4 6.4 6.4 6.4 6.4 6.4 6.4 6.3 6.1 5.8 5.3 4.3 3.6 3.3 3.6 3.7
7.7 7.7 7.7 7.5 7.4 7.4 7.5 7.3 7.1 6.8 6.6 6.3 6.1 6.0 5.9 6.0 6.0 6.0 5.9 6.0 6.0 6.0 6.1 6.2 6.3 6.3 6.4 6.4 6.3 6.3 6.3 6.3 6.3 6.3 6.3 6.1 5.9 5.6 5.1 4.4 4.2 4.2 4.0
7.6 7.6 7.5 7.6 7.5 7.4 7.2 7.1 6.9 6.8 6.5 6.2 6.0 5.9 5.9 6.0 6.0 6.0 5.8 5.9 6.0 6.1 6.2 6.2 6.3 6.3 6.3 6.2 6.3 6.3 6.3 6.3 6.3 6.3 6.2 6.1 6.1 5.9 5.8 5.6 5.3 5.1 4.9
7.8 7.7 7.6 7.6 7.4 7.2 7.1 7.0 6.8 6.5 6.4 6.1 5.9 5.8 5.8 5.9 6.0 6.0 5.9 5.9 5.9 6.0 6.1 6.2 6.2 6.2 6.3 6.3 6.3 6.3 6.2 6.2 6.2 6.2 6.1 6.0 6.0 6.0 6.1 6.1 6.0 5.9 5.9
7.8 7.7 7.8 7.8 7.5 7.4 7.2 6.8 6.6 6.4 6.2 6.0 5.8 5.7 5.7 5.8 5.9 6.1 6.0 5.9 6.0 6.0 6.1 6.1 6.2 6.2 6.2 6.2 6.2 6.3 6.2 6.2 6.1 6.0 6.0 5.9 5.9 5.9 6.0 6.1 6.3 6.2 6.3
7.8 7.8 7.6 7.5 7.4 7.4 7.1 6.9 6.7 6.5 6.0 5.9 5.7 5.7 5.7 5.8 5.9 5.9 6.0 6.0 6.0 6.0 6.0 6.0 6.1 6.1 6.2 6.2 6.2 6.2 6.1 6.1 6.0 5.9 5.8 5.7 5.7 5.7 5.6 5.7 5.8 5.9 5.9
7.8 7.6 7.3 7.3 7.2 7.1 6.9 6.7 6.5 6.4 6.3 6.1 5.8 5.6 5.6 5.8 5.9 5.8 5.8 5.9 6.0 6.1 6.0 5.9 5.9 6.0 6.1 6.1 6.0 6.0 6.0 6.0 5.9 5.8 5.7 5.6 5.6 5.5 5.5 5.5 5.5 5.3 5.4
7.5 7.4 7.2 7.0 6.9 6.8 6.8 6.6 6.4 6.4 6.4 6.1 5.8 5.6 5.6 5.8 5.8 5.7 5.7 5.7 5.8 5.8 5.9 5.9 5.9 5.9 6.0 6.0 5.9 5.9 5.8 5.8 5.8 5.7 5.6 5.5 5.5 5.5 5.4 5.5 5.5 5.6 5.6
6.9 6.9 6.7 6.5 6.7 6.7 6.7 6.5 6.4 6.4 6.3 6.1 5.7 5.7 5.8 5.8 5.7 5.6 5.7 5.8 5.8 5.9 6.0 6.0 6.0 6.0 6.0 5.9 5.9 5.8 5.8 5.7 5.7 5.7 5.7 5.7 5.6 5.6 5.6 5.6 5.6 5.6 5.6
6.8 6.6 6.4 6.3 6.3 6.4 6.4 6.4 6.4 6.5 6.4 6.2 6.0 5.8 5.8 5.7 5.5 5.5 5.8 5.8 5.8 6.0 5.9 5.9 5.9 6.0 6.0 5.9 5.9 5.8 5.8 5.8 5.8 5.8 5.7 5.6 5.6 5.6 5.6 5.6 5.6 5.5 5.4
6.6 6.3 6.1 6.0 6.0 6.1 6.1 6.2 6.2 6.2 6.3 6.2 6.1 6.2 5.8 5.5 5.7 5.7 5.9 5.9 5.9 6.0 6.0 6.1 6.1 6.0 5.9 6.0 6.0 5.9 5.8 5.9 5.9 5.8 5.8 5.7 5.6 5.6 5.7 5.8 5.7 5.6 5.5
6.4 6.4 6.1 5.7 5.7 5.7 5.7 5.9 6.1 6.1 6.3 6.4 6.3 5.7 5.7 5.9 6.1 6.0 5.7 5.7 5.8 6.0 6.0 6.0 6.0 6.0 6.2 6.1 6.0 6.0 6.0 6.0 5.9 5.8 5.7 5.6 5.5 5.7 5.7 5.8 5.8 5.8 5.7
6.5 6.2 5.8 5.6 5.5 5.5 5.5 5.7 6.0 5.9 5.9 5.9 5.6 5.5 5.7 6.2 6.3 6.0 5.6 5.8 5.9 5.8 5.9 6.0 6.0 6.1 6.2 6.2 6.1 6.0 6.0 6.0 6.0 5.8 5.7 5.6 5.5 5.6 5.8 5.9 5.9 5.9 5.8
6.5 6.1 5.9 5.9 5.6 5.4 5.4 5.5 5.6 5.6 5.4 5.4 5.7 6.0 6.1 5.8 5.6 5.5 5.5 5.7 5.7 5.7 5.9 6.1 6.2 6.1 6.2 6.2 6.1 6.1 6.1 6.2 6.2 6.1 5.9 5.8 5.7 5.7 5.7 5.7 5.7 5.7 5.8
6.3 6.7 6.5 6.4 6.1 5.9 5.6 5.6 5.7 5.8 5.7 5.4 5.7 5.9 5.9 5.9 5.8 5.8 5.9 5.8 5.9 6.0 6.1 6.0 6.1 6.3 6.5 6.5 6.4 6.3 6.4 6.4 6.4 6.2 6.1 6.0 5.9 5.8 5.8 5.8 5.8 5.7 5.7
6.3 6.4 6.4 6.5 6.8 6.7 6.3 6.0 6.0 5.9 5.9 5.7 5.8 5.9 6.0 6.0 6.0 6.2 6.2 6.1 6.1 6.1 6.2 6.2 6.2 6.2 6.2 6.1 6.1 6.0 6.0 6.1 6.0 5.8 5.8 5.8 5.7 5.7 5.7 5.6 5.7 5.7 5.6
6.2 6.1 6.1 6.4 6.7 6.7 6.5 6.3 6.1 5.9 6.0 5.9 5.9 6.0 6.1 6.2 6.2 6.3 6.4 6.5 6.5 6.5 6.4 6.4 6.2 6.2 6.2 6.1 6.2 6.0 5.9 5.8 5.7 5.7 5.7 5.7 5.7 5.7 5.6 5.5 5.5 5.4 5.6
6.1 6.3 6.3 6.0 6.0 6.2 6.3 6.1 5.9 5.9 5.8 5.9 5.9 5.9 5.9 6.1 6.3 6.4 6.3 6.3 6.3 6.2 6.2 6.1 6.1 6.0 6.0 6.0 6.0 6.0 5.8 5.7 5.6 5.6 5.7 5.7 5.7 5.8 5.7 5.6 5.6 5.7 5.7
5.9 6.1 6.0 5.8 5.9 6.0 6.1 6.2 6.1 6.0 6.0 6.0 6.1 6.1 6.1 6.1 6.2 6.3 6.4 6.5 6.4 6.3 6.2 6.2 6.2 6.2 6.2 6.2 6.1 6.0 5.9 5.9 5.7 5.7 5.8 6.0 5.8 5.7 5.6 5.5 5.8 5.9 6.1
5.8 5.9 6.0 5.9 5.7 5.8 5.7 5.7 5.7 5.8 5.7 5.8 5.9 6.1 6.2 6.2 6.3 6.3 6.3 6.2 6.2 6.2 6.2 6.2 6.1 6.1 6.0 6.0 5.9 6.0 6.1 6.2 6.2 6.1 6.2 6.2 6.2 6.2 6.4 6.1 6.1 6.1 6.1
5.1 5.5 5.8 5.9 5.8 5.7 5.7 5.6 5.6 5.7 5.8 5.8 5.9 6.1 6.2 6.3 6.3 6.4 6.3 6.2 6.1 6.1 6.1 6.0 6.1 6.0 5.8 5.8 5.8 5.9 5.9 6.0 6.0 5.9 5.9 6.1 6.2 6.1 6.2 6.3 6.0 6.2 6.3
5.0 5.0 5.2 5.3 5.5 5.6 5.7 5.4 5.3 5.1 5.2 5.3 5.5 5.6 5.5 5.6 5.7 5.7 5.7 5.8 5.9 5.9 5.8 5.6 5.6 5.8 6.0 6.0 6.1 6.2 6.2 6.1 6.0 5.9 5.8 5.9 6.0 6.2 6.2 6.2 5.9 5.8 5.9
Wind_Speed
15 16 14 14 12 11 11 10 9 8 6 5 5 3 3 3 5 6 7 9 10 10 11 11 11 11 8 8 11 8 8 8 10 4 4 6 7 7 5 9 8 10 8
17 17 17 16 15 13 12 11 10 9 6 4 3 2 4 4 5 5 6 7 9 10 10 9 9 12 7 9 10 11 7 6 8 5 2 1 4 7 7 8 7 10 11
20 19 19 18 15 15 14 12 11 10 7 8 6 5 5 4 3 3 4 7 8 9 9 10 10 10 10 7 8 8 10 5 6 9 4 3 3 3 4 6 6 5 5
17 17 18 18 17 14 12 13 12 11 8 11 7 8 4 5 3 4 4 5 6 8 9 10 10 10 9 8 7 10 7 7 7 3 6 5 4 3 3 2 3 3 5
17 17 17 17 16 14 13 12 13 12 10 9 7 6 5 4 5 4 5 5 5 7 9 9 9 9 9 10 10 8 9 6 6 6 4 3 2 6 2 3 5 4 4
13 11 12 15 14 13 12 12 14 12 11 10 8 7 6 6 5 5 4 3 3 5 6 7 7 9 9 10 9 10 10 7 7 5 6 5 4 4 4 2 5 7 2
7 9 13 14 13 15 15 13 14 13 13 12 11 9 8 8 6 6 3 4 3 3 4 5 7 7 8 8 8 9 8 7 7 7 5 5 5 4 4 3 4 4 3
7 6 10 13 10 13 14 14 14 13 13 13 11 9 9 5 5 6 4 3 2 3 4 4 5 6 7 8 8 8 7 9 5 8 6 4 5 4 4 3 5 4 3
11 12 8 8 11 11 12 14 14 13 14 13 10 11 10 9 6 7 7 4 6 6 4 3 4 4 5 6 6 6 5 7 6 5 5 4 4 4 2 3 2 2 3
9 11 11 11 9 11 10 8 11 14 13 12 11 10 10 10 8 8 7 7 8 7 6 5 4 3 3 4 3 4 5 4 4 4 5 4 3 3 4 3 2 1 1
8 9 10 11 11 10 12 11 9 10 13 12 11 12 11 10 9 8 8 9 10 10 9 8 6 5 4 3 3 3 3 3 3 3 3 4 4 2 2 3 3 2 2
5 5 8 10 12 13 13 15 13 12 9 12 11 11 11 11 11 10 9 13 10 12 11 10 8 7 6 5 3 3 3 2 2 2 1 2 2 2 2 2 3 3 4
4 5 7 9 11 12 13 14 14 14 11 8 12 12 12 12 12 11 9 12 12 12 11 10 7 6 6 6 5 4 4 3 2 1 1 0 2 1 1 2 2 3 4
5 6 7 9 10 12 13 13 13 13 13 13 12 13 13 13 12 11 11 11 13 9 10 11 10 9 9 8 7 6 5 4 3 3 3 2 2 2 3 4 4 3 4
7 9 10 9 9 10 12 13 13 14 14 14 15 15 12 12 11 12 12 11 12 11 13 9 10 10 9 10 8 8 6 5 5 5 6 5 2 2 5 4 4 5 5
10 11 8 7 11 12 13 12 14 15 15 15 17 13 11 13 14 13 13 12 12 12 9 11 10 10 7 14 15 11 6 6 5 5 5 6 7 8 7 7 7 7 6
15 8 11 12 11 13 14 15 14 12 15 15 14 14 14 15 14 13 13 14 14 12 12 11 11 10 10 17 17 17 8 6 7 6 5 5 7 7 8 7 8 10 11
14 12 8 8 10 9 10 9 11 13 14 15 15 14 14 15 13 13 15 15 12 13 12 12 12 11 10 19 19 19 12 7 7 7 7 7 6 8 7 5 6 6 8
14 10 3 2 3 6 8 10 11 11 12 13 14 13 13 13 13 15 16 13 12 12 12 10 12 12 10 19 20 18 9 9 9 8 11 10 7 11 10 7 7 7 7
5 6 6 4 5 5 2 7 8 9 10 7 7 7 9 11 11 11 11 10 10 11 8 10 11 15 11 19 22 20 7 8 6 7 9 14 12 13 12 7 7 8 7
5 5 6 5 5 4 2 1 4 4 3 5 5 6 8 8 8 8 8 8 8 8 9 9 9 10 11 11 21 23 9 7 6 6 6 6 12 14 15 15 8 9 10
5 6 5 5 5 5 3 4 5 4 4 4 4 4 4 5 5 7 7 8 8 9 8 8 7 7 8 17 17 21 22 15 7 7 5 6 12 13 14 14 16 18 18
3 3 3 4 5 6 5 5 4 4 5 5 6 6 5 4 4 6 5 6 6 6 7 6 6 6 6 6 18 18 20 19 11 7 10 15 15 16 15 19 21 21 9
6 5 3 3 5 6 7 6 5 5 5 6 6 6 6 6 5 4 5 5 5 5 5 5 5 5 5 5 5 5 8 15 11 12 10 12 14 18 16 14 13 9 8
2 3 4 4 6 6 6 6 4 4 6 6 5 5 5 5 5 4 3 3 3 4 4 4 4 5 5 5 7 6 4 3 6 7 6 6 7 8 8 9 9 8 8
2 0 3 3 3 4 5 5 4 3 4 5 4 5 5 5 5 5 4 4 4 5 3 2 2 1 4 5 7 11 14 16 17 8 8 8 8 9 8 9 9 9 11
Wind_Direction
203 196 193 186 183 179 177 176 173 169 169 178 177 163 121 108 83 62 35 30 25 20 21 24 16 14 25 22 19 7 20 24 2 6 3 99 76 51 35 41 38 39 31
203 194 193 190 190 186 186 182 182 172 183 180 153 124 128 95 99 96 69 44 37 31 34 27 24 22 20 27 26 23 17 22 26 11 296 36 106 84 61 46 38 33 26
207 198 195 195 190 191 186 185 181 178 172 160 144 134 124 145 154 117 79 49 45 40 37 36 33 32 30 30 31 26 28 23 35 44 23 17 24 326 88 69 52 39 37
208 200 192 197 193 192 183 182 178 177 173 170 175 177 182 160 117 121 109 85 56 50 41 41 40 39 40 36 30 31 34 28 35 46 29 30 20 16 352 35 35 17 28
210 201 190 193 192 185 179 178 176 177 174 181 187 185 180 128 148 145 135 112 82 59 51 44 42 42 41 41 38 35 35 40 49 48 6 23 354 13 359 328 7 331 1
209 192 181 180 188 182 176 179 177 181 178 178 184 190 174 161 161 163 152 130 103 83 59 57 54 48 43 39 38 43 42 39 48 57 53 37 26 13 10 327 339 325 348
178 173 179 179 181 183 181 182 181 182 179 181 179 182 177 176 177 169 167 160 144 113 76 61 57 54 49 44 43 44 45 42 43 42 38 59 46 15 5 344 337 333 313
177 181 185 185 174 178 183 184 183 182 183 183 181 181 182 182 183 180 170 167 145 118 112 88 73 62 53 48 45 46 46 48 45 43 36 44 45 58 30 19 351 330 336
189 193 186 188 177 178 184 184 181 184 187 185 179 183 184 187 189 180 179 169 156 151 147 126 97 74 63 53 56 52 45 49 44 43 40 42 33 32 28 15 32 2 338
204 189 195 193 180 184 182 183 191 187 184 183 184 186 188 189 187 184 188 182 176 168 169 162 148 127 101 84 83 84 58 64 54 50 43 47 26 28 23 354 37 10 303
209 192 193 190 182 179 183 186 187 189 183 186 189 188 188 187 188 188 191 189 181 184 185 182 178 171 158 145 128 114 101 87 79 60 42 43 22 19 17 359 352 325 314
213 200 190 177 186 187 185 191 191 192 189 185 189 195 189 187 192 194 193 191 191 191 193 190 192 188 182 177 174 163 148 133 116 93 65 49 10 27 14 343 324 305 304
191 194 198 194 193 194 193 195 195 196 191 185 188 196 196 192 198 196 194 193 196 194 197 198 201 198 194 192 196 192 186 185 183 179 237 322 310 316 322 307 297 304 315
207 218 214 213 201 198 196 197 197 193 187 190 193 195 201 198 199 196 193 193 200 200 200 202 204 202 199 203 199 203 204 205 208 203 231 245 256 294 310 302 306 312 303
210 222 225 213 206 199 200 196 197 190 186 189 198 207 197 201 200 200 196 193 200 206 203 201 204 203 205 205 203 204 207 210 213 207 220 225 215 301 281 304 324 314 310
235 224 210 197 203 205 207 200 196 193 184 191 205 202 199 198 204 202 197 197 201 203 204 206 204 204 206 214 213 210 208 212 220 227 223 222 206 230 223 246 264 270 286
258 223 215 212 210 207 202 202 196 182 189 198 203 200 201 204 205 202 200 202 202 199 206 208 208 211 210 215 215 213 222 223 222 222 227 233 232 209 233 240 247 249 249
262 255 235 222 215 200 188 184 170 179 187 200 206 203 202 205 201 201 207 208 203 202 203 206 208 212 216 215 216 215 216 232 231 229 234 241 243 236 244 264 274 272 266
274 292 343 184 141 173 179 175 178 186 191 201 206 203 199 200 198 202 208 210 209 205 207 206 205 210 213 216 215 213 215 228 233 228 229 234 240 243 242 249 264 268 263
14 356 6 24 71 36 51 168 176 179 203 207 204 193 191 197 202 206 205 207 211 214 204 209 212 212 215 215 214 213 217 228 232 234 235 241 243 254 251 248 261 269 273
9 17 38 50 34 18 30 119 130 165 127 129 148 162 175 183 185 190 195 198 206 209 213 208 211 217 213 219 214 217 216 222 231 232 236 231 241 243 248 254 257 269 287
45 40 60 57 30 19 12 103 93 63 76 99 115 120 133 162 166 174 179 189 192 198 204 203 213 215 213 221 219 220 222 230 236 238 242 247 253 252 251 253 258 270 276
31 44 85 89 59 37 21 90 78 74 99 102 99 103 110 131 155 174 167 183 189 195 204 199 206 212 199 210 222 220 226 230 242 248 251 255 259 263 265 262 265 269 262
6 4 3 59 65 54 63 84 99 105 103 102 102 105 118 125 142 161 174 186 186 199 193 205 206 209 200 207 211 221 241 244 247 253 262 263 262 259 258 263 266 261 256
20 22 29 32 45 47 63 62 65 90 104 109 113 123 116 121 133 132 155 175 175 199 192 201 202 192 203 208 212 210 216 235 253 267 273 263 257 256 256 254 252 251 249
327 103 93 104 80 64 57 64 73 93 124 121 130 131 132 138 130 134 121 105 146 160 145 141 162 181 215 228 230 240 248 253 252 249 247 252 251 252 252 253 252 247 249